This is the latest recevied weather packets stored in our database for station/object DB0SVX. If no packets are shown the sender has not sent any weather packets the latest 10 day(s).
| Time | Temp. | Humidity | Pressure | Rain* | Wind** | Luminosity | Snow |
|---|---|---|---|---|---|---|---|
| 1777571719 | 12.22° C | 23% | 1021.9 hPa | 0 mm | - | - | - |
| 1777570819 | 14.44° C | 20% | 1021.7 hPa | 0 mm | - | - | - |
| 1777569919 | 19.44° C | 17% | 1021.7 hPa | 0 mm | - | - | - |
| 1777569019 | 20° C | 17% | 1021.7 hPa | 0 mm | - | - | - |
| 1777568119 | 20.56° C | 16% | 1021.5 hPa | 0 mm | - | - | - |
| 1777567219 | 21.11° C | 16% | 1021.5 hPa | 0 mm | - | - | - |
| 1777566319 | 21.11° C | 16% | 1021.4 hPa | 0 mm | - | - | - |
| 1777565419 | 21.67° C | 16% | 1021.2 hPa | 0 mm | - | - | - |
| 1777564519 | 21.67° C | 15% | 1021.2 hPa | 0 mm | - | - | - |
| 1777563619 | 21.67° C | 15% | 1021 hPa | 0 mm | - | - | - |
| 1777562719 | 22.22° C | 16% | 1021.2 hPa | 0 mm | - | - | - |
| 1777561819 | 22.22° C | 16% | 1021.2 hPa | 0 mm | - | - | - |
| 1777560919 | 22.22° C | 16% | 1021 hPa | 0 mm | - | - | - |
| 1777560019 | 21.67° C | 17% | 1021 hPa | 0 mm | - | - | - |
| 1777559119 | 20.56° C | 18% | 1020.9 hPa | 0 mm | - | - | - |
| 1777558219 | 20° C | 18% | 1021 hPa | 0 mm | - | - | - |
| 1777557319 | 19.44° C | 18% | 1021.2 hPa | 0 mm | - | - | - |
| 1777556419 | 18.89° C | 18% | 1021.2 hPa | 0 mm | - | - | - |
| 1777555519 | 18.89° C | 19% | 1021 hPa | 0 mm | - | - | - |
| 1777554619 | 18.89° C | 22% | 1021.4 hPa | 0 mm | - | - | - |
| 1777553719 | 18.33° C | 23% | 1021.5 hPa | 0 mm | - | - | - |
| 1777552819 | 17.78° C | 23% | 1021.5 hPa | 0 mm | - | - | - |
| 1777551919 | 18.33° C | 24% | 1021.7 hPa | 0 mm | - | - | - |
| 1777551019 | 18.89° C | 24% | 1021.7 hPa | 0 mm | - | - | - |
| 1777550119 | 19.44° C | 23% | 1021.9 hPa | 0 mm | - | - | - |
* Rain latest hour (hover to see other rain measurements)
** Current wind speed in m/s (hover to see current wind gust speed)